Location: Unspecified
(0.0000°N, 0.0000°E)
Time: 08:31:24
(UTC+00:00)

HTV-X1 - Pass Details

Date: 09 April 2026
Orbit: 463 x 473 km, 51.6° (Epoch: 9 April)

Event Time Altitude Azimuth Distance (km) Brightness Sun altitude
Rises 05:30:57 0° 207° (SSW) 2,486 ? -7.6°
Reaches altitude 10° 05:33:08 10° 202° (SSW) 1,610 ? -7.1°
Maximum altitude 05:36:40 50° 126° (SE) 600 ? -6.2°
Drops below altitude 10° 05:40:11 10° 49° (NE) 1,609 ? -5.3°
Sets 05:42:22 0° 44° (NE) 2,483 ? -4.8°
